Wind_Speed
72 71 71 70 69 68 68 67 65 64 63 63 62 61 61 60 60 59 59 59 58 58 59 59 59 59 59 59 59 60 60 60 60 61 61 61 61 61 62 62 62 62 62 63 63 63 63 64 64 64 65 65 65 65 65 65 65 65 65 65 66 65 66 66 65 65 65 65 65 65 65 65 65 65 65 65 65 65 65 65 65 64 64 63 62 62
70 69 68 68 67 66 65 65 64 62 62 61 61 60 60 59 59 59 59 59 58 58 59 59 59 59 59 60 60 60 60 61 61 61 62 62 62 62 62 62 63 63 63 63 63 64 64 64 65 65 65 65 65 65 65 65 66 66 66 66 66 66 66 66 66 66 66 66 65 65 65 65 65 65 65 65 65 65 65 65 65 65 65 64 64 63
67 67 66 66 65 64 63 63 62 61 60 60 60 59 59 59 59 59 59 59 59 59 59 59 59 60 60 60 61 61 61 61 62 62 62 62 63 63 63 63 63 63 64 64 64 64 64 65 65 65 65 66 66 66 66 66 66 66 66 66 66 66 66 66 66 66 66 66 66 65 65 65 65 65 65 65 65 65 65 65 65 65 65 65 65 64
65 64 64 63 63 62 62 61 60 60 59 59 59 59 59 59 59 59 60 60 60 60 60 60 60 60 61 61 61 61 62 62 62 62 63 63 63 63 63 63 64 64 64 64 64 65 65 65 65 66 66 66 66 66 66 66 66 66 66 66 66 66 66 66 66 66 66 66 66 66 66 65 65 65 65 65 65 65 65 65 65 65 66 65 65 65
63 62 62 61 60 60 60 60 59 59 59 59 59 59 59 59 59 60 60 60 60 60 60 60 60 61 61 61 62 62 62 62 63 63 63 63 63 64 64 64 64 64 64 65 65 65 66 66 66 66 66 67 67 67 67 67 67 67 67 67 67 67 67 67 67 67 66 66 66 66 66 66 65 65 65 65 65 65 65 65 65 66 66 66 66 66
60 60 59 59 59 59 59 59 59 58 58 59 59 59 59 59 59 60 60 60 60 60 61 61 61 61 61 61 62 62 62 63 63 63 63 63 64 64 64 64 65 65 65 65 66 66 66 66 67 67 67 67 67 67 67 68 68 68 68 68 68 68 68 68 67 67 67 67 67 66 66 66 66 66 66 66 66 66 66 66 66 66 66 66 66 66
58 58 58 58 58 58 58 58 58 58 58 58 59 59 59 59 59 59 60 60 60 60 60 61 61 61 61 62 62 62 63 63 63 63 64 64 64 65 65 65 65 66 66 66 66 67 67 67 67 68 68 68 68 68 68 68 68 68 68 69 69 69 69 69 68 68 68 68 67 67 67 67 66 66 66 66 66 66 66 66 66 66 66 66 66 66
57 57 57 57 57 58 58 58 58 58 58 58 58 59 59 59 59 59 60 60 60 60 61 61 61 62 62 62 62 62 63 63 63 64 64 64 65 65 66 66 66 66 67 67 67 68 68 68 68 68 68 68 68 69 69 69 69 69 69 69 69 69 69 69 69 69 69 69 69 68 68 68 67 67 67 67 66 66 66 66 66 66 66 66 66 66
56 56 56 56 57 57 57 58 58 58 57 57 58 58 58 59 59 60 60 60 60 60 61 61 62 62 62 63 63 63 63 63 64 64 65 65 66 66 66 67 67 67 67 68 68 68 68 69 69 69 69 69 69 69 69 69 69 70 70 70 70 70 70 70 70 70 70 70 69 69 69 68 68 68 68 67 67 67 67 67 67 66 66 66 66 66
55 55 56 56 56 56 57 57 58 58 57 57 57 58 58 58 59 60 60 61 61 61 61 61 61 62 63 63 63 63 63 64 64 65 65 66 66 67 67 67 68 68 68 68 69 69 69 69 69 69 70 70 70 70 70 70 70 71 71 71 71 71 71 71 71 71 70 70 70 70 70 69 69 69 68 68 68 68 68 68 67 67 67 67 67 67
55 55 55 56 56 56 56 57 57 58 57 58 58 58 58 59 59 59 60 61 61 61 61 61 61 62 63 63 64 64 64 64 65 65 66 66 67 67 68 68 68 68 69 69 69 70 70 70 70 70 70 71 71 71 71 72 72 72 72 72 72 72 72 72 71 71 71 71 71 70 70 70 70 69 69 69 69 69 68 68 68 68 68 68 67 67
54 55 55 56 56 56 56 57 57 58 58 58 58 59 59 59 59 59 59 60 61 61 61 61 62 62 63 64 64 64 64 65 65 66 66 67 68 68 68 68 69 69 69 69 70 70 71 71 71 71 71 72 72 73 73 73 73 74 74 73 73 73 73 72 72 72 71 71 71 71 70 70 70 70 70 69 69 69 69 69 69 68 68 68 68 68
54 55 55 56 56 56 57 57 58 58 58 58 59 59 60 60 59 59 59 60 60 60 61 61 62 62 63 64 64 65 65 65 66 66 67 68 68 69 69 69 69 69 69 70 70 71 71 71 72 72 73 73 74 74 75 75 75 75 75 75 74 74 74 73 73 72 72 71 71 71 71 71 70 70 70 70 70 70 69 69 69 69 69 69 69 69
55 55 55 56 56 57 57 58 58 59 59 59 59 60 60 60 59 59 59 59 59 60 60 60 61 62 63 64 64 65 65 65 66 67 67 68 69 69 69 69 69 70 70 70 71 71 72 72 73 73 74 75 76 76 77 77 77 77 77 76 76 75 74 74 73 73 72 72 71 71 71 71 71 71 71 70 70 70 70 70 70 69 69 69 70 70
55 55 56 56 57 57 58 58 59 59 60 60 60 59 59 59 59 59 59 59 59 59 59 60 61 62 63 64 65 65 65 66 66 67 68 69 69 69 69 70 70 70 70 71 71 72 72 73 74 75 75 76 77 78 78 79 79 78 78 78 77 76 76 75 74 74 73 72 72 72 71 71 71 71 71 71 71 71 70 70 70 70 70 70 70 70
56 56 56 57 58 58 59 59 59 60 60 60 59 59 59 59 58 58 58 59 59 59 59 60 61 62 64 65 65 66 66 66 66 67 67 69 70 70 70 70 70 70 70 71 72 72 73 74 75 76 76 77 78 79 80 80 80 80 80 79 79 78 77 76 75 75 74 73 73 72 72 72 71 71 71 71 71 71 71 71 71 71 71 71 71 71
56 57 57 58 58 59 59 60 60 60 60 59 59 58 58 58 58 58 58 59 59 59 60 60 61 62 64 65 66 66 66 66 66 67 67 69 69 70 70 70 70 70 70 71 72 73 74 75 75 77 78 79 80 80 81 81 82 82 81 81 80 80 79 78 77 76 76 75 74 74 73 72 72 72 71 71 71 71 71 71 71 71 72 72 72 72
57 57 58 58 59 59 60 60 60 60 59 59 59 58 58 58 58 58 59 59 59 60 60 61 61 62 64 66 67 67 67 67 67 67 67 68 69 70 70 70 70 70 71 72 73 74 75 76 77 78 79 80 81 82 82 83 83 83 83 82 82 82 81 80 80 79 78 77 76 75 74 73 73 72 72 71 71 71 71 71 71 72 72 72 73 73
58 58 58 59 59 60 60 60 60 60 59 59 58 58 58 58 58 59 59 60 60 60 61 61 62 63 64 66 67 67 67 67 67 67 67 68 69 70 70 70 70 70 71 72 74 75 76 77 78 79 80 81 82 83 83 84 84 84 84 84 84 84 84 83 82 81 80 79 78 77 75 74 73 72 71 71 70 70 70 70 70 71 71 72 73 73
58 59 59 59 59 60 60 60 60 60 59 59 59 59 59 59 59 59 60 60 61 61 62 62 63 64 65 66 67 67 67 67 67 67 67 67 68 69 70 70 70 71 72 73 75 76 77 78 79 80 81 83 83 84 84 85 85 85 85 85 86 86 86 85 85 84 83 82 80 78 76 75 73 72 71 70 70 69 69 68 69 69 70 71 72 72
59 59 59 59 60 60 61 61 61 60 60 59 59 59 59 59 60 60 61 61 62 62 63 63 64 65 65 66 67 67 67 67 67 67 66 67 67 69 69 70 70 71 73 74 76 77 78 79 80 82 83 83 84 85 85 85 86 86 86 86 87 87 87 87 87 86 85 83 82 80 78 76 74 72 71 70 69 68 67 67 67 67 68 69 70 71
59 59 60 60 60 60 61 61 61 61 60 60 60 59 59 59 60 61 61 62 63 63 64 64 65 65 66 66 67 67 67 67 67 66 66 66 67 68 69 70 71 72 74 75 77 78 79 80 81 82 83 84 85 85 86 86 86 86 87 87 88 88 88 88 88 87 86 85 83 81 79 77 75 73 71 70 68 67 66 66 66 66 67 67 68 69
58 59 60 60 61 61 61 62 62 62 61 61 60 60 59 60 60 61 62 63 63 64 64 64 65 65 66 67 67 67 67 67 67 66 66 66 67 68 70 71 72 74 75 76 78 79 80 81 82 83 84 84 85 85 86 86 87 87 87 88 88 88 88 88 88 87 86 85 83 82 79 77 76 74 72 70 69 68 66 66 66 65 66 66 67 68
58 59 60 61 61 61 62 62 62 62 61 61 60 60 60 60 60 61 62 63 64 64 64 65 65 66 66 67 67 67 68 67 67 67 67 67 68 69 71 72 74 75 76 77 78 80 80 81 82 83 83 84 84 85 86 86 87 87 88 88 88 89 88 88 88 87 86 85 83 81 80 78 76 75 73 72 70 69 68 67 66 66 66 66 66 67
59 60 61 61 62 62 62 62 62 62 62 61 60 60 60 60 61 61 62 63 63 64 64 64 65 66 66 67 67 68 68 68 68 68 68 68 69 70 72 74 75 76 77 78 78 79 80 81 82 82 83 83 84 84 85 86 86 87 87 88 88 88 88 88 87 86 85 84 82 81 79 78 77 75 74 73 72 70 69 68 67 67 67 66 66 67
60 61 61 62 62 62 62 62 62 62 62 61 61 60 60 60 61 62 62 63 63 63 64 64 65 65 66 66 67 69 69 69 69 69 69 70 71 72 73 75 76 77 77 78 78 79 80 80 81 81 81 82 83 83 84 85 85 86 86 87 87 87 87 86 86 85 84 83 81 80 79 77 76 75 74 73 72 71 70 69 68 68 67 67 67 67
61 61 62 62 62 62 62 63 62 62 62 61 61 61 60 60 61 62 62 63 63 63 64 64 65 65 65 66 67 69 70 70 71 71 71 71 72 73 75 75 76 77 77 77 77 77 78 79 79 79 80 80 81 82 83 83 84 85 85 85 85 85 85 84 84 83 82 81 80 79 78 76 76 75 74 73 72 72 71 70 69 69 68 67 67 67
61 62 62 62 62 62 63 63 63 63 62 62 61 61 60 61 61 62 62 62 63 63 63 64 64 64 65 66 67 69 70 72 72 73 72 73 74 75 75 76 76 76 76 76 75 75 76 77 77 78 78 79 79 80 81 82 83 83 83 83 83 83 83 82 82 81 80 79 78 77 76 75 74 74 73 73 72 72 71 71 70 69 68 68 67 67
61 62 62 62 62 62 63 63 63 63 62 62 61 61 60 60 61 62 62 62 62 63 63 63 64 64 65 66 67 69 71 73 74 74 73 74 74 75 75 76 76 76 75 75 73 72 72 73 75 76 77 77 78 79 80 80 81 81 81 81 81 80 80 80 80 80 79 78 77 76 75 74 74 73 73 72 72 71 71 70 70 69 68 68 67 67
62 62 62 62 62 62 63 63 63 63 62 62 61 61 60 60 61 61 62 62 62 63 63 63 63 64 65 66 67 69 72 74 74 74 74 75 75 75 75 75 75 74 74 73 71 70 69 70 71 74 76 76 77 78 78 79 79 79 78 78 78 78 78 78 78 78 78 77 76 76 75 74 73 73 72 72 71 71 70 70 69 69 68 68 67 67
62 62 62 62 62 62 62 62 62 62 62 62 61 61 61 60 61 61 61 62 62 62 63 63 64 64 65 67 68 71 73 74 75 75 74 74 74 74 74 74 74 73 72 71 70 69 67 67 68 71 74 76 76 77 77 77 76 76 75 75 75 76 76 77 77 77 77 76 76 75 74 74 73 72 72 71 71 70 70 69 69 68 68 67 67 67
62 62 62 63 63 63 62 62 62 62 62 62 61 61 61 61 61 61 62 62 62 63 63 64 64 65 66 68 70 72 74 75 75 75 74 74 74 73 72 73 73 72 70 69 68 68 67 67 67 69 71 73 75 75 75 75 74 74 74 74 74 75 75 76 76 76 76 76 75 75 74 73 73 72 71 70 70 69 69 69 68 68 67 67 66 66
62 62 63 63 63 63 63 62 62 62 62 62 62 62 62 62 62 62 62 63 63 63 64 65 66 67 68 69 70 72 74 75 75 74 74 73 73 72 71 71 71 70 69 68 67 67 67 67 67 68 69 70 72 73 73 73 72 72 72 73 74 74 75 75 76 76 76 75 75 75 74 73 72 72 71 70 69 69 68 68 67 67 66 66 66 66
62 62 63 63 63 63 63 62 62 62 62 62 62 62 62 63 63 63 64 64 64 64 65 66 67 68 69 70 71 73 74 75 75 74 73 72 72 71 70 70 70 69 68 67 67 66 67 67 67 67 67 67 68 69 70 71 71 71 72 73 73 74 75 75 76 76 76 76 75 75 74 73 73 72 71 70 69 68 68 67 67 66 66 66 66 66
62 62 63 63 63 63 63 63 62 62 62 62 63 63 63 64 64 65 65 65 65 65 66 67 68 69 70 71 72 74 75 75 74 74 73 72 72 71 70 69 69 68 68 67 67 67 67 66 66 66 66 66 65 66 67 68 69 70 71 72 73 73 74 75 75 76 76 76 75 75 75 74 73 72 71 70 69 68 67 67 66 66 65 65 65 66
62 62 63 63 63 63 63 63 63 63 63 63 63 63 64 64 65 65 66 66 66 67 67 68 68 69 70 71 73 74 75 75 74 74 73 73 72 71 70 69 68 67 67 67 66 66 66 65 65 64 64 64 64 64 65 66 68 69 70 71 72 73 74 74 75 75 75 75 75 75 75 74 73 72 71 70 69 68 67 66 66 66 65 65 65 65
62 62 62 62 62 62 63 63 63 63 63 63 64 64 65 65 66 66 67 67 68 68 69 69 69 70 71 72 73 74 74 74 74 74 74 73 72 71 70 68 67 66 67 67 66 65 65 64 63 62 62 63 63 64 64 65 67 68 69 70 71 72 73 74 74 74 75 75 75 75 74 74 73 72 71 70 69 68 67 66 66 65 65 65 65 65
61 62 62 62 62 62 63 63 63 63 63 64 64 65 65 66 66 67 68 68 68 69 69 70 70 71 72 73 74 74 74 74 74 74 74 74 72 71 70 68 67 66 66 67 66 65 64 63 62 61 61 61 62 63 64 65 66 67 68 69 70 72 73 73 73 74 74 74 74 74 74 73 73 72 71 70 69 68 67 66 65 65 64 64 64 65
61 62 62 62 62 62 62 63 63 63 63 64 64 65 66 66 67 67 68 68 69 69 69 70 71 72 73 74 75 75 75 75 75 75 75 74 73 71 70 68 68 67 66 66 66 65 64 63 61 61 61 61 61 62 64 65 66 66 67 68 69 70 71 72 72 72 72 72 72 72 73 72 72 71 71 70 69 68 67 66 65 64 64 63 63 64
61 61 62 62 62 62 62 63 63 63 63 64 65 65 66 66 67 67 68 68 68 69 69 70 70 72 73 74 75 76 76 76 76 76 75 74 73 71 70 69 68 68 67 67 66 65 64 63 62 61 60 61 61 62 63 64 65 66 66 67 68 69 70 71 71 71 71 71 71 71 71 71 71 70 69 69 68 67 66 65 64 63 63 62 62 63
61 61 61 62 62 62 62 62 63 63 64 64 65 66 66 66 67 67 68 68 68 68 69 69 71 72 73 74 75 76 76 76 76 76 75 74 73 71 70 69 68 68 67 67 66 65 64 63 62 61 61 60 61 61 62 64 65 65 65 66 66 67 68 69 69 69 69 68 69 69 69 69 69 68 68 67 66 65 64 63 62 61 61 60 61 61
61 61 61 62 62 62 62 62 63 63 64 64 65 66 66 66 67 67 67 68 68 68 69 70 71 72 74 75 75 76 76 76 76 76 76 74 73 71 70 69 69 68 68 67 66 65 64 63 63 62 61 60 60 60 61 62 63 64 65 65 65 65 66 66 67 67 67 67 66 67 67 67 66 66 65 65 64 64 63 61 60 59 59 58 58 59
61 61 61 62 62 62 62 63 63 63 64 65 65 66 66 66 66 66 67 67 68 68 69 70 71 72 73 75 75 76 76 76 76 76 75 74 73 72 71 70 69 69 68 67 66 65 64 63 63 62 61 60 59 59 60 61 62 63 63 63 63 63 63 64 64 64 64 64 64 64 64 64 63 63 63 63 62 62 61 59 58 57 56 56 56 57
61 61 61 62 62 62 62 63 63 64 65 65 66 66 66 66 66 66 66 67 67 68 69 70 71 72 73 74 75 75 75 76 76 76 75 74 73 72 71 71 70 69 68 67 66 65 65 64 63 62 61 59 59 59 59 60 60 61 62 62 61 61 60 61 61 61 62 62 62 61 61 61 60 60 60 60 60 59 58 57 56 55 54 54 54 54
61 61 61 62 62 62 63 63 64 64 65 66 66 66 66 66 65 65 66 66 67 68 68 69 71 72 73 73 74 74 74 75 75 75 75 73 72 71 71 71 70 69 68 67 67 66 66 65 63 61 60 58 58 58 58 59 59 60 60 59 59 58 58 58 58 58 58 59 59 59 58 58 57 57 57 57 57 57 56 55 54 53 52 51 51 52
61 61 61 62 62 63 63 63 64 65 65 66 66 66 66 65 65 65 66 66 67 68 69 69 71 72 73 73 73 73 73 74 74 74 74 73 72 71 71 70 70 69 68 68 67 67 66 65 63 61 59 57 57 57 58 59 59 58 58 57 56 56 55 55 55 55 55 55 56 56 55 55 54 54 54 54 54 54 54 53 52 51 50 50 50 50
61 61 62 62 62 63 63 64 64 65 65 66 66 65 65 65 65 65 65 66 67 68 69 70 70 71 72 72 72 72 72 73 73 73 72 71 71 71 71 70 69 69 68 68 68 68 67 65 63 60 58 56 56 57 58 58 58 57 56 55 54 53 53 53 52 52 53 52 53 53 53 52 52 52 52 52 52 52 52 51 51 50 49 49 49 49
61 61 62 62 63 63 64 64 64 65 65 65 65 65 65 65 65 65 65 66 67 68 69 70 71 71 71 71 71 71 71 72 72 71 70 70 70 69 69 69 69 68 68 69 69 68 67 65 62 60 57 56 56 57 57 58 57 56 54 53 51 51 51 50 50 50 50 50 50 51 51 51 51 51 51 51 51 51 51 50 50 49 49 49 49 49
61 62 62 62 63 64 64 64 64 65 65 65 65 65 65 65 65 65 65 66 67 68 69 70 71 71 71 71 71 71 71 71 71 70 69 68 68 68 68 68 67 68 68 68 68 68 66 64 62 59 57 55 55 56 56 56 55 54 52 51 50 49 48 49 48 48 48 48 48 49 49 49 49 49 49 50 50 50 49 49 49 49 48 49 49 49
62 62 62 63 63 64 64 64 64 64 64 64 64 64 64 64 65 65 65 66 67 68 69 70 70 70 70 70 70 70 71 71 70 69 68 67 67 67 66 66 66 67 67 68 67 67 65 64 62 59 56 55 54 54 55 54 53 52 51 49 48 47 47 47 47 47 47 47 47 47 48 48 48 48 48 48 48 48 48 48 48 48 48 48 49 49
62 62 62 63 63 63 64 64 64 64 63 63 63 64 64 64 64 65 65 66 67 68 69 69 70 70 70 69 69 70 70 70 69 68 67 66 66 65 65 65 65 66 66 66 66 65 64 63 62 60 57 54 53 52 52 52 51 50 49 48 47 46 46 46 46 46 45 45 46 46 46 46 46 47 47 47 47 47 47 46 46 46 46 47 48 49
Wind_Direction
286 286 286 285 285 285 285 284 284 284 284 284 284 284 283 283 283 282 282 282 281 281 281 280 280 279 279 278 278 277 277 277 276 276 275 275 274 274 274 273 273 272 272 272 271 271 271 270 270 269 269 268 268 267 267 266 265 265 264 263 263 262 262 262 261 261 261 260 260 260 260 260 261 261 261 261 262 262 262 262 262 262 262 261 260 259
285 285 284 284 284 283 283 284 283 283 283 284 284 284 284 283 283 283 282 282 282 281 281 280 280 280 279 279 278 278 277 277 277 276 276 275 275 275 274 274 274 273 273 272 272 272 271 271 270 270 270 269 269 268 268 267 267 266 265 265 264 263 263 262 262 261 261 260 260 260 259 259 259 259 259 260 260 260 261 261 261 261 261 261 260 260
283 283 283 282 282 282 282 282 283 283 283 283 283 284 284 283 283 283 283 282 282 281 281 280 280 280 279 279 279 278 278 277 277 277 276 276 276 275 275 275 274 274 274 273 273 272 272 272 271 271 271 270 270 269 269 269 268 268 267 266 266 265 264 264 263 262 262 261 260 260 259 259 258 258 258 258 258 258 258 259 259 259 260 260 260 260
282 281 281 281 281 281 281 281 282 282 282 283 283 283 283 283 283 282 282 282 281 281 281 280 280 280 279 279 279 278 278 277 277 277 277 276 276 276 276 275 275 275 274 274 274 273 273 272 272 272 272 271 271 271 270 270 270 269 269 268 267 267 266 265 264 263 263 262 261 261 260 259 259 258 257 257 257 257 256 257 257 257 258 258 258 259
280 280 280 280 280 280 280 281 281 281 282 282 282 282 282 282 282 282 281 281 281 281 280 280 280 279 279 279 279 278 278 278 278 277 277 277 277 276 276 276 276 275 275 274 274 274 273 273 273 272 272 272 272 272 271 271 271 270 270 269 269 268 267 267 266 265 264 263 262 262 261 260 259 258 258 257 256 256 255 255 255 255 255 256 256 257
278 278 278 278 278 279 279 280 280 280 281 281 281 281 281 281 281 281 281 281 280 280 280 280 280 279 279 279 279 278 278 278 278 278 278 277 277 277 277 276 276 276 275 275 275 274 274 274 273 273 273 272 272 272 272 272 271 271 270 270 270 269 268 268 267 266 265 265 264 263 262 261 260 259 258 258 257 256 255 255 254 254 254 254 254 254
277 277 277 277 277 278 278 279 279 279 279 280 280 280 280 280 280 280 280 280 280 280 280 280 280 279 279 279 279 279 279 279 279 279 278 278 278 278 277 277 277 276 276 276 275 275 275 274 274 274 273 273 273 272 272 272 271 271 271 270 270 269 269 268 268 267 266 266 265 264 263 262 261 260 259 259 258 257 256 255 255 254 253 253 252 252
275 275 275 276 276 277 277 277 278 278 278 279 279 279 279 279 279 279 279 279 279 279 279 280 280 279 279 279 279 279 279 279 279 279 279 279 279 278 278 278 277 277 277 277 276 276 275 275 275 274 274 274 273 273 273 272 272 271 271 270 270 269 269 268 268 267 267 266 265 265 264 263 262 261 260 260 259 258 257 256 256 255 254 253 252 252
274 274 274 275 275 275 276 276 277 277 277 277 278 278 278 278 279 279 279 279 279 279 279 280 280 280 280 280 280 280 280 280 280 280 280 280 279 279 279 279 278 278 278 277 277 277 277 276 276 276 275 275 275 274 274 273 272 272 271 270 270 269 269 268 267 267 266 266 265 265 264 263 263 262 261 260 260 259 258 257 257 256 255 254 253 252
273 273 274 274 274 275 275 276 276 276 276 276 276 277 277 277 278 278 278 279 279 279 279 280 280 280 281 281 281 281 281 280 280 280 280 280 280 280 279 279 279 279 279 278 278 278 278 278 277 277 277 277 276 275 275 274 273 272 272 271 270 269 268 268 267 267 266 265 265 264 264 263 263 262 262 261 260 260 259 258 258 257 256 256 255 254
272 273 273 274 274 274 275 275 275 276 276 276 276 276 276 276 276 277 278 278 279 280 280 280 280 281 281 281 281 281 281 281 281 280 280 280 280 280 280 280 280 280 280 280 280 279 279 279 279 279 278 278 277 277 276 275 274 273 272 271 270 269 269 268 267 267 266 266 265 264 264 263 263 262 262 261 261 260 259 259 258 258 257 256 256 255
273 273 273 274 274 274 275 275 275 275 275 275 275 275 275 276 276 276 277 278 279 280 280 281 281 281 281 281 281 281 281 281 281 281 281 281 280 280 280 280 280 280 280 280 281 280 281 280 280 280 280 279 279 278 277 276 275 274 273 272 271 270 269 268 268 267 266 266 265 265 264 264 263 262 262 261 260 260 259 259 258 258 257 257 256 256
273 273 274 274 274 274 275 275 275 275 275 275 275 275 275 276 276 277 277 277 278 279 280 281 281 281 281 281 281 281 281 281 281 281 281 281 281 281 281 281 281 281 281 281 282 282 282 282 281 281 281 280 279 279 278 277 276 275 274 273 272 271 270 269 268 268 267 266 266 265 264 264 263 263 262 261 261 260 260 259 258 258 257 257 256 256
274 274 274 274 274 274 274 274 275 275 275 275 275 275 276 277 277 278 278 278 278 279 280 280 280 280 281 280 280 280 281 281 281 281 281 281 281 281 281 282 282 282 282 282 283 283 282 282 282 282 281 281 280 279 278 277 276 275 275 274 273 272 271 270 269 269 268 267 266 266 265 264 264 263 262 262 261 261 260 259 259 258 257 257 256 256
274 274 274 274 274 274 274 275 275 275 275 275 276 276 277 278 278 278 278 279 279 279 279 279 280 280 280 280 280 280 280 280 281 281 281 281 281 281 282 282 282 283 283 283 283 283 283 283 282 282 281 281 280 279 279 278 277 276 276 275 274 273 273 272 271 270 269 268 267 266 265 265 264 263 263 262 262 261 260 260 259 258 258 257 256 256
274 274 274 274 275 275 275 275 275 275 276 277 277 278 278 278 279 279 279 279 279 280 280 280 280 280 280 280 280 280 280 280 280 281 281 281 282 282 282 283 283 283 283 283 283 283 283 283 282 282 281 281 280 280 279 279 278 278 277 276 276 275 274 274 273 272 271 270 269 268 266 265 264 263 263 262 261 261 261 260 260 259 258 258 257 256
275 275 275 275 275 275 276 276 276 277 277 278 278 279 279 279 280 280 280 280 280 280 280 280 280 281 281 280 280 280 280 281 281 281 282 282 282 282 283 283 283 283 284 284 283 283 283 283 282 282 281 281 280 280 279 279 279 279 278 278 278 277 276 276 275 274 273 271 270 269 268 267 265 264 263 262 261 261 260 260 259 259 259 258 257 257
275 275 275 275 276 276 277 277 278 278 279 279 280 280 280 281 281 281 281 281 281 281 281 280 280 281 281 281 281 281 281 281 282 282 282 283 283 283 283 284 284 284 284 284 283 283 283 283 282 282 281 281 280 280 280 280 280 280 279 279 279 279 278 278 277 276 274 273 272 270 269 268 266 265 264 263 262 261 260 259 259 259 258 258 257 257
276 276 276 277 277 278 278 279 279 280 280 281 281 282 282 282 282 282 282 281 281 281 281 281 281 281 281 281 281 281 282 282 282 283 283 283 283 284 284 284 284 284 284 284 283 283 283 282 282 282 281 281 281 280 280 280 280 280 280 280 280 280 280 279 278 277 276 275 273 272 271 269 268 266 265 264 262 261 260 259 258 258 257 257 257 257
277 277 277 278 279 279 280 280 281 281 282 282 283 283 283 283 283 283 283 282 282 282 282 282 282 282 282 282 282 282 282 282 283 283 283 283 283 284 284 284 284 284 284 283 283 283 282 282 282 281 281 281 281 280 280 280 281 281 281 281 281 280 280 280 279 278 277 276 275 273 272 271 269 268 266 265 264 262 261 260 259 258 257 256 256 256
278 278 279 279 280 280 281 281 282 282 283 283 284 284 284 284 284 284 283 283 283 283 283 282 282 282 282 282 282 282 283 283 283 283 283 283 283 283 283 284 284 284 284 283 283 282 282 282 281 281 281 281 281 281 281 281 281 281 281 281 281 280 280 279 279 278 278 277 276 275 273 272 271 269 268 267 265 264 262 261 259 258 257 256 255 255
278 279 280 280 281 281 282 282 283 283 284 284 284 284 284 284 284 284 284 284 284 283 283 283 283 283 283 283 283 283 283 283 283 283 283 283 283 283 284 284 284 283 283 283 282 282 282 282 281 281 281 281 281 281 281 281 281 281 281 281 280 280 279 279 278 278 277 277 276 276 275 274 273 272 270 269 267 266 264 262 261 259 258 256 255 254
279 280 280 281 281 281 282 283 283 284 284 284 284 284 284 284 284 284 284 284 284 284 284 284 284 284 284 284 284 284 284 283 283 283 284 284 284 284 284 284 284 283 283 282 282 282 281 281 281 281 281 281 281 282 282 282 281 281 281 280 280 279 279 278 278 277 277 277 276 276 276 275 274 274 273 271 270 268 266 264 262 260 258 256 255 254
279 279 280 281 281 282 282 283 283 284 284 284 284 284 284 284 284 284 284 284 284 284 284 285 285 285 285 285 285 285 285 284 284 284 284 284 284 284 284 284 283 283 282 282 282 282 282 281 281 281 282 282 282 282 282 282 281 281 280 280 279 279 278 278 277 277 277 277 277 277 276 276 276 275 274 273 271 270 268 266 263 261 259 257 255 253
279 280 280 281 281 282 283 283 284 284 284 284 284 284 284 284 284 284 284 284 284 284 285 285 285 285 286 286 286 286 286 285 285 285 285 285 285 285 284 283 283 282 282 281 281 282 282 282 282 282 282 282 282 282 282 281 281 280 280 279 278 278 277 277 277 277 277 277 277 277 277 277 276 275 274 273 272 270 268 266 264 262 260 257 255 253
280 280 281 282 282 283 284 284 284 285 285 285 285 285 285 285 284 284 284 284 284 285 285 285 285 286 286 287 287 287 287 286 286 286 286 286 286 285 284 283 282 282 282 281 281 282 282 282 282 282 282 282 282 282 281 281 280 279 279 278 278 277 277 277 277 277 277 277 277 277 277 276 275 275 274 273 271 270 268 266 264 262 260 258 255 253
280 281 282 283 283 284 285 285 285 285 285 285 285 285 285 285 285 285 285 285 285 285 286 286 286 286 287 287 287 288 287 287 287 286 286 286 286 285 283 283 282 282 282 282 282 282 283 283 283 283 283 282 282 282 281 280 280 279 278 278 278 277 277 277 278 277 277 277 277 276 276 275 274 273 272 271 270 268 267 265 264 262 260 258 256 254
281 282 283 284 284 285 285 286 286 286 286 286 286 286 285 286 285 285 285 285 286 286 286 286 287 287 288 288 288 288 288 288 287 286 286 286 285 284 283 283 282 282 282 282 282 283 283 284 284 284 283 282 282 281 280 280 279 278 278 278 278 278 278 278 278 278 277 277 276 276 275 274 273 272 271 270 268 267 266 265 263 262 260 258 256 254
282 283 284 285 285 286 286 287 287 287 287 287 287 286 286 286 286 286 286 286 286 287 287 287 288 288 289 289 289 289 289 288 287 286 286 286 285 284 283 283 283 283 283 283 283 283 284 284 285 284 283 283 282 281 280 279 279 279 278 279 279 279 279 279 278 278 277 276 276 275 274 273 272 271 270 268 267 266 265 264 263 261 260 258 257 255
284 285 285 286 286 287 287 287 288 288 288 287 287 287 286 286 286 286 287 287 287 288 288 289 289 290 290 290 290 290 289 288 287 286 286 286 285 285 284 284 284 284 284 284 284 284 284 285 285 285 284 283 282 281 280 280 279 279 279 279 279 279 279 279 278 277 276 276 275 274 273 272 271 270 269 268 267 266 265 263 262 261 260 258 256 255
285 286 287 287 288 288 288 288 288 288 288 288 288 288 287 287 287 288 288 288 289 289 290 291 291 292 292 292 292 291 290 288 287 286 286 286 286 286 286 286 286 286 286 286 286 286 286 285 285 285 284 284 283 282 281 281 281 281 281 280 280 280 279 278 278 277 276 275 274 274 273 272 271 269 268 267 266 265 264 263 262 261 259 258 256 255
287 287 288 288 289 289 289 289 289 289 289 289 289 289 289 289 289 290 290 290 291 291 292 293 293 293 293 293 293 292 291 289 288 287 287 287 287 287 287 288 288 288 288 288 288 288 288 287 286 285 284 284 284 283 282 282 282 282 282 282 281 280 279 278 278 277 276 275 274 274 273 272 270 269 268 267 266 265 264 263 262 260 259 258 256 254
288 289 289 290 290 290 290 290 290 290 290 290 290 290 291 291 291 292 292 292 293 293 294 295 295 295 295 294 293 292 291 289 288 288 288 288 288 289 289 289 289 289 290 290 290 289 289 288 287 285 284 284 284 284 284 284 284 283 283 282 281 280 280 279 278 277 277 276 275 274 273 272 271 270 268 267 266 265 264 263 261 260 259 257 256 254
289 290 290 290 291 291 291 291 291 291 291 291 291 292 292 293 293 293 294 294 295 295 296 296 296 296 296 295 294 292 291 290 290 289 290 290 290 290 291 291 291 291 291 291 291 290 289 288 287 286 285 284 284 284 285 284 284 284 283 282 281 280 280 279 279 278 277 276 276 275 274 273 271 270 269 268 266 265 264 263 261 260 258 257 255 254
290 290 291 291 291 291 291 291 291 291 292 292 293 293 294 294 294 295 295 296 296 297 297 297 297 297 296 296 295 293 292 292 291 291 292 292 292 292 292 293 293 293 293 293 292 291 290 289 288 287 286 286 285 285 285 284 284 283 282 281 281 280 280 279 278 278 277 277 276 275 274 273 272 271 270 269 267 266 264 263 261 260 258 257 255 254
290 290 291 291 291 291 291 292 292 292 292 293 293 294 294 295 295 296 297 297 298 298 298 298 298 297 297 296 295 294 293 293 293 293 294 294 294 294 294 294 294 294 294 294 292 292 291 290 289 288 288 287 287 286 285 284 283 283 282 281 280 280 279 278 278 277 277 276 276 275 274 274 273 272 271 269 268 266 265 263 262 260 258 257 255 253
290 290 291 291 291 291 291 292 292 292 293 294 294 295 295 296 296 297 298 299 299 300 300 300 299 298 297 296 295 295 294 294 294 295 295 295 295 296 296 296 296 296 295 295 293 292 291 290 290 289 289 289 288 287 286 284 283 282 281 281 280 279 278 277 277 276 276 276 275 275 274 274 273 272 271 270 268 267 265 264 262 260 259 257 255 253
290 290 290 291 291 291 291 292 292 293 293 294 295 295 296 297 297 298 299 300 300 301 301 301 300 299 298 297 296 296 296 296 296 296 297 297 297 297 298 298 298 297 296 296 294 293 292 292 291 291 290 289 289 288 286 285 283 282 281 280 280 279 278 277 276 276 276 275 275 274 274 273 272 271 270 269 268 267 266 264 262 261 259 257 255 254
290 290 290 291 291 291 292 292 293 293 294 295 295 296 297 298 299 299 300 301 301 302 302 301 301 300 299 298 298 297 297 297 298 298 298 298 299 299 299 299 299 298 297 296 295 295 294 293 293 292 291 290 289 288 287 285 284 283 281 280 279 279 278 277 276 276 275 275 274 274 273 272 272 271 270 269 268 267 266 264 262 261 259 257 256 254
290 290 290 290 291 291 292 292 293 294 295 295 296 297 297 298 299 300 301 301 302 302 302 302 301 300 299 299 298 298 299 299 299 299 299 300 300 300 300 300 300 299 298 297 296 296 295 295 294 293 292 291 290 289 288 286 285 283 282 280 279 279 278 277 276 275 275 274 274 273 273 272 271 271 270 269 268 267 265 264 262 260 259 257 255 254
290 290 290 291 291 292 292 293 294 294 295 296 297 297 298 299 300 301 302 302 302 302 302 302 301 300 300 299 299 299 300 300 300 300 300 301 301 301 301 301 301 300 299 298 297 297 297 296 295 294 293 292 291 289 288 287 285 284 282 281 280 279 278 277 277 276 275 274 274 273 272 272 271 271 270 269 268 267 265 264 262 260 258 256 255 253
290 290 290 291 292 292 293 294 294 295 296 297 297 298 299 300 301 302 302 303 303 303 302 302 302 301 300 300 300 300 300 301 301 301 301 301 302 302 302 302 301 300 299 299 298 298 298 297 296 295 294 292 291 290 289 288 286 284 283 281 280 279 278 278 277 276 275 275 274 273 272 272 271 271 270 269 268 267 265 264 262 260 258 256 254 252
290 290 291 291 292 293 294 294 295 296 297 298 298 299 300 301 302 302 303 303 303 303 302 302 301 301 300 300 300 301 301 301 302 302 302 302 302 303 303 302 302 301 300 300 300 299 298 298 297 296 295 294 293 292 290 288 287 285 283 282 280 279 279 278 277 277 276 275 274 273 272 272 271 271 270 269 268 267 265 264 262 260 258 255 253 251
290 291 291 292 293 293 294 295 296 297 298 299 299 300 301 302 302 303 303 303 303 303 302 301 301 300 300 300 300 301 301 302 302 302 302 303 303 303 303 303 302 302 301 301 301 301 300 298 297 296 296 295 294 293 291 289 287 285 284 283 281 280 280 278 278 277 276 275 274 273 272 272 271 270 269 268 267 266 265 264 262 260 257 255 253 250
290 291 292 292 293 294 295 296 297 298 299 300 300 301 302 302 303 303 303 303 303 302 302 301 301 300 300 300 300 301 302 302 302 302 303 303 304 304 304 303 303 303 303 303 302 302 301 300 299 298 298 297 296 295 293 290 288 286 285 284 283 282 281 280 279 278 277 275 274 274 273 272 271 269 268 267 267 266 265 263 261 259 257 255 252 250
291 291 292 293 294 295 296 297 298 299 300 300 301 301 302 303 303 303 303 303 303 302 301 301 300 300 300 300 301 302 302 302 302 303 303 304 304 304 304 304 304 304 304 304 304 302 302 301 300 300 299 299 298 296 294 291 289 287 286 285 284 283 282 281 279 278 277 276 275 274 273 272 270 269 268 267 266 265 264 263 261 259 257 255 252 250
291 292 293 293 294 295 297 298 299 299 300 301 301 302 302 303 303 303 303 303 303 302 301 301 300 300 300 301 302 302 303 303 303 303 303 304 305 305 305 305 305 306 306 305 305 303 302 302 301 301 301 301 299 297 294 292 290 289 288 287 286 285 283 281 280 278 277 276 275 274 273 272 271 269 268 267 266 264 263 262 260 259 256 254 252 249
292 292 293 294 295 296 297 298 299 300 301 301 302 302 303 303 303 304 303 303 302 302 301 301 301 301 301 302 302 303 303 303 303 303 304 304 305 305 305 306 306 307 307 306 305 304 303 303 303 303 302 302 300 298 296 294 292 291 290 289 287 286 284 282 281 279 278 277 276 275 273 272 271 270 268 267 266 264 263 261 260 258 256 254 252 249
292 293 294 295 296 297 298 299 300 300 301 302 302 303 303 303 304 304 304 303 302 302 301 301 301 301 302 303 303 304 304 303 303 304 304 305 305 306 306 307 307 308 307 306 306 305 304 304 304 303 303 302 301 299 297 295 294 293 292 290 289 287 285 283 282 280 279 278 276 275 274 273 271 270 269 267 266 264 263 261 259 258 255 253 251 249
292 293 294 295 296 297 298 299 300 301 301 302 303 303 303 304 304 304 303 303 302 302 301 301 301 302 303 304 304 304 304 304 304 304 305 306 306 306 307 308 308 308 308 307 306 306 306 306 305 304 303 302 301 299 298 296 295 294 293 292 290 288 287 285 283 282 280 279 278 276 275 273 272 271 269 268 266 265 263 261 259 257 255 253 251 249
293 294 295 296 297 298 299 299 300 301 302 302 303 303 304 304 304 304 303 303 302 302 302 302 302 303 304 305 305 305 305 304 304 305 306 306 307 307 308 309 309 309 308 308 307 307 307 307 306 305 303 302 301 300 299 298 297 296 295 293 292 290 288 287 285 284 282 281 279 277 276 274 273 271 270 268 267 265 263 261 259 257 255 252 250 248
Height
10483 10482 10481 10480 10479 10478 10477 10477 10477 10477 10476 10476 10476 10476 10476 10475 10475 10474 10474 10474 10474 10473 10472 10472 10471 10471 10470 10469 10469 10469 10469 10468 10468 10467 10467 10467 10467 10466 10466 10466 10466 10466 10466 10466 10466 10466 10466 10466 10466 10466 10466 10466 10466 10466 10467 10467 10468 10469 10469 10470 10471 10471 10471 10472 10472 10473 10473 10474 10474 10474 10475 10476 10476 10476 10477 10477 10479 10479 10480 10481 10482 10483 10484 10486 10487 10489
10479 10477 10476 10475 10474 10473 10472 10472 10472 10472 10471 10471 10471 10470 10470 10470 10469 10469 10469 10469 10469 10468 10467 10467 10466 10465 10464 10464 10464 10464 10463 10462 10462 10462 10462 10461 10461 10461 10461 10461 10461 10461 10460 10460 10460 10460 10459 10459 10459 10459 10459 10459 10459 10460 10461 10461 10461 10462 10462 10463 10464 10464 10465 10466 10466 10467 10467 10468 10469 10469 10470 10471 10471 10471 10472 10472 10473 10474 10474 10476 10476 10477 10479 10480 10481 10482
10475 10473 10472 10471 10470 10469 10468 10467 10467 10468 10467 10467 10466 10466 10466 10465 10464 10464 10464 10464 10463 10463 10462 10462 10461 10460 10459 10459 10459 10458 10457 10457 10457 10456 10456 10456 10456 10455 10455 10455 10454 10454 10454 10454 10454 10454 10454 10453 10453 10453 10453 10453 10453 10454 10454 10454 10455 10455 10456 10456 10457 10458 10459 10459 10460 10461 10461 10462 10462 10464 10464 10465 10466 10466 10467 10467 10468 10469 10469 10470 10471 10472 10472 10474 10475 10476
10471 10469 10467 10467 10466 10465 10464 10464 10464 10464 10463 10462 10462 10461 10461 10460 10459 10459 10459 10458 10457 10457 10457 10457 10456 10456 10454 10454 10453 10453 10452 10452 10451 10451 10451 10451 10450 10450 10449 10449 10449 10449 10449 10448 10448 10448 10447 10447 10447 10447 10447 10447 10447 10447 10447 10448 10448 10449 10449 10449 10450 10451 10452 10452 10453 10454 10454 10456 10456 10457 10458 10459 10459 10461 10461 10462 10462 10463 10464 10464 10465 10466 10467 10468 10469 10470
10466 10465 10464 10463 10462 10461 10460 10460 10460 10459 10459 10459 10458 10457 10457 10456 10455 10454 10454 10453 10452 10452 10452 10451 10451 10451 10449 10449 10448 10447 10447 10446 10446 10446 10446 10445 10445 10444 10444 10444 10443 10443 10443 10442 10442 10442 10442 10441 10441 10441 10441 10441 10441 10441 10441 10441 10442 10442 10442 10443 10443 10444 10444 10445 10446 10447 10447 10448 10449 10450 10451 10452 10453 10454 10455 10456 10457 10457 10459 10459 10460 10461 10462 10462 10464 10464
10462 10462 10461 10459 10458 10457 10456 10456 10456 10456 10455 10454 10454 10453 10452 10452 10451 10450 10449 10449 10448 10447 10447 10446 10446 10445 10444 10444 10443 10442 10442 10441 10441 10441 10440 10440 10439 10439 10438 10438 10437 10437 10437 10437 10436 10436 10436 10436 10435 10435 10435 10435 10435 10435 10436 10436 10436 10436 10436 10436 10437 10437 10437 10438 10439 10439 10440 10441 10442 10442 10444 10445 10446 10447 10448 10449 10450 10451 10452 10453 10454 10455 10456 10457 10458 10459
10459 10458 10457 10456 10454 10454 10453 10452 10452 10452 10451 10450 10449 10449 10448 10447 10447 10446 10445 10444 10444 10442 10442 10441 10441 10440 10439 10439 10438 10437 10437 10436 10436 10436 10435 10434 10434 10433 10432 10432 10432 10431 10431 10431 10431 10430 10429 10429 10429 10429 10429 10429 10429 10429 10429 10429 10429 10429 10429 10430 10430 10430 10431 10431 10431 10432 10432 10434 10434 10436 10436 10437 10439 10439 10441 10442 10443 10444 10446 10446 10447 10449 10450 10451 10452 10454
10455 10454 10453 10452 10451 10450 10449 10449 10448 10448 10447 10447 10446 10444 10444 10443 10442 10441 10441 10440 10439 10438 10437 10437 10436 10435 10434 10434 10433 10432 10432 10431 10431 10430 10429 10429 10428 10427 10427 10426 10426 10425 10425 10424 10424 10424 10423 10422 10422 10422 10422 10422 10422 10422 10422 10422 10423 10423 10423 10423 10423 10423 10424 10424 10424 10425 10426 10426 10427 10428 10429 10430 10431 10432 10433 10434 10436 10437 10438 10439 10441 10442 10443 10445 10446 10448
10451 10450 10449 10449 10447 10446 10445 10444 10444 10444 10444 10443 10442 10441 10440 10439 10437 10437 10436 10435 10434 10434 10434 10432 10431 10430 10429 10429 10428 10427 10427 10427 10426 10425 10424 10423 10422 10421 10421 10420 10419 10419 10419 10418 10417 10417 10416 10416 10416 10416 10416 10416 10416 10416 10416 10416 10416 10416 10416 10416 10416 10416 10416 10417 10417 10417 10418 10419 10419 10421 10421 10422 10424 10424 10426 10427 10428 10429 10431 10432 10433 10435 10436 10438 10439 10441
10447 10446 10445 10444 10444 10443 10442 10440 10439 10440 10440 10439 10438 10437 10437 10435 10434 10432 10432 10431 10430 10429 10429 10429 10427 10426 10424 10424 10423 10422 10422 10421 10421 10420 10419 10417 10417 10416 10415 10414 10414 10413 10412 10412 10411 10410 10409 10409 10409 10409 10409 10408 10408 10408 10408 10407 10407 10407 10408 10408 10408 10408 10409 10409 10409 10410 10411 10411 10412 10413 10414 10415 10416 10417 10418 10419 10421 10422 10423 10424 10426 10427 10429 10431 10432 10434
10443 10442 10441 10440 10439 10439 10438 10437 10436 10436 10436 10435 10434 10433 10433 10432 10431 10429 10428 10426 10426 10425 10425 10424 10423 10422 10420 10418 10417 10417 10417 10416 10415 10414 10414 10412 10411 10410 10409 10409 10407 10407 10406 10406 10404 10404 10402 10402 10402 10402 10401 10401 10401 10400 10399 10399 10399 10399 10399 10399 10399 10400 10401 10401 10401 10402 10403 10404 10404 10406 10406 10407 10409 10410 10411 10412 10413 10414 10416 10417 10418 10420 10421 10423 10424 10426
10438 10437 10437 10436 10434 10434 10433 10432 10432 10431 10431 10430 10429 10428 10427 10427 10427 10427 10425 10423 10422 10421 10420 10419 10419 10417 10416 10414 10412 10412 10412 10411 10409 10409 10407 10406 10405 10404 10404 10403 10402 10401 10401 10400 10399 10397 10396 10396 10395 10395 10394 10393 10392 10392 10391 10391 10391 10390 10390 10391 10391 10391 10392 10392 10393 10394 10395 10396 10397 10397 10399 10400 10401 10402 10403 10404 10406 10407 10408 10409 10411 10412 10414 10416 10417 10418
10434 10433 10432 10431 10430 10429 10429 10428 10427 10427 10426 10426 10425 10424 10423 10423 10423 10423 10422 10420 10419 10418 10417 10416 10414 10412 10411 10409 10408 10407 10406 10406 10405 10404 10402 10401 10399 10398 10397 10397 10396 10396 10395 10394 10392 10391 10391 10389 10389 10387 10387 10386 10384 10383 10382 10382 10381 10381 10381 10381 10382 10382 10383 10384 10385 10386 10387 10387 10389 10390 10391 10392 10393 10394 10396 10397 10398 10399 10401 10402 10404 10405 10406 10408 10409 10411
10429 10428 10427 10426 10425 10424 10424 10424 10422 10422 10421 10421 10421 10420 10419 10419 10419 10418 10417 10416 10415 10414 10414 10412 10409 10407 10406 10404 10403 10402 10402 10401 10400 10399 10397 10395 10394 10393 10392 10392 10391 10390 10389 10388 10387 10385 10384 10383 10382 10381 10379 10378 10376 10375 10374 10373 10372 10372 10372 10372 10372 10373 10374 10375 10376 10377 10378 10379 10381 10382 10382 10384 10385 10386 10387 10389 10390 10391 10393 10394 10396 10397 10399 10401 10402 10403
10424 10423 10422 10421 10421 10419 10419 10419 10418 10417 10416 10416 10416 10416 10415 10414 10414 10414 10413 10412 10411 10410 10409 10407 10406 10403 10401 10399 10398 10397 10397 10396 10396 10394 10392 10390 10389 10387 10387 10387 10386 10385 10384 10382 10381 10379 10378 10377 10376 10374 10372 10371 10368 10366 10365 10364 10364 10363 10363 10363 10364 10364 10365 10366 10367 10368 10369 10371 10372 10373 10374 10376 10377 10378 10379 10381 10382 10383 10385 10387 10388 10390 10391 10392 10394 10396
10419 10418 10417 10416 10416 10414 10414 10414 10413 10412 10412 10412 10412 10411 10411 10410 10409 10409 10409 10407 10406 10405 10404 10402 10401 10398 10396 10394 10392 10392 10392 10391 10391 10390 10388 10385 10383 10382 10382 10382 10381 10380 10379 10377 10375 10373 10372 10371 10369 10367 10365 10363 10361 10359 10357 10356 10355 10354 10354 10354 10354 10355 10356 10356 10357 10359 10359 10361 10362 10363 10365 10366 10368 10369 10371 10372 10374 10376 10377 10379 10380 10382 10383 10384 10386 10387
10414 10413 10412 10411 10411 10409 10409 10409 10409 10408 10407 10407 10407 10407 10406 10406 10405 10404 10403 10402 10401 10400 10399 10397 10396 10394 10391 10388 10387 10386 10387 10386 10386 10385 10384 10381 10378 10377 10377 10376 10376 10374 10373 10371 10369 10367 10366 10364 10362 10361 10358 10356 10354 10352 10350 10348 10347 10346 10346 10345 10345 10346 10346 10346 10347 10348 10349 10351 10352 10354 10355 10357 10358 10360 10362 10364 10366 10367 10369 10371 10372 10374 10375 10376 10377 10379
10409 10408 10407 10407 10406 10405 10404 10404 10404 10403 10403 10403 10402 10402 10402 10401 10400 10399 10397 10397 10396 10394 10393 10392 10391 10389 10387 10383 10381 10380 10381 10381 10380 10379 10379 10376 10373 10371 10371 10371 10370 10369 10367 10365 10362 10361 10359 10357 10356 10354 10351 10349 10347 10345 10343 10341 10340 10339 10337 10337 10336 10336 10336 10336 10337 10337 10339 10340 10341 10343 10345 10347 10349 10351 10352 10354 10357 10359 10361 10362 10364 10366 10367 10368 10369 10371
10404 10403 10402 10402 10401 10400 10399 10399 10399 10399 10399 10398 10397 10397 10396 10395 10394 10393 10392 10391 10390 10389 10387 10386 10385 10384 10382 10379 10376 10375 10376 10376 10375 10374 10373 10371 10369 10366 10365 10365 10364 10363 10362 10359 10357 10354 10353 10351 10349 10347 10344 10342 10340 10338 10336 10334 10333 10332 10331 10329 10328 10327 10326 10326 10326 10326 10327 10329 10330 10332 10334 10336 10339 10341 10343 10345 10347 10350 10352 10354 10356 10358 10359 10360 10361 10362
10398 10398 10397 10397 10396 10396 10394 10394 10394 10394 10394 10393 10393 10392 10391 10389 10389 10387 10386 10385 10384 10383 10382 10381 10379 10377 10376 10374 10371 10370 10370 10370 10369 10369 10368 10366 10364 10361 10360 10359 10359 10357 10356 10353 10351 10348 10347 10344 10342 10341 10338 10336 10333 10331 10329 10327 10326 10324 10323 10322 10320 10319 10317 10317 10316 10316 10316 10317 10319 10321 10323 10326 10329 10331 10334 10336 10339 10341 10344 10346 10348 10350 10351 10352 10353 10354
10394 10392 10392 10392 10392 10391 10389 10389 10389 10389 10389 10388 10388 10387 10386 10384 10383 10382 10381 10379 10378 10377 10377 10375 10373 10371 10370 10368 10366 10364 10364 10364 10363 10362 10362 10361 10359 10356 10354 10354 10353 10352 10349 10346 10344 10342 10340 10338 10336 10334 10331 10329 10326 10324 10322 10321 10319 10317 10316 10314 10312 10311 10309 10307 10307 10306 10306 10307 10308 10311 10313 10316 10318 10321 10324 10327 10329 10332 10335 10337 10339 10341 10342 10344 10345 10346
10389 10388 10387 10387 10387 10386 10385 10384 10384 10384 10384 10383 10382 10382 10381 10379 10378 10376 10375 10374 10373 10372 10371 10369 10367 10366 10364 10362 10360 10359 10358 10357 10357 10356 10356 10356 10354 10351 10349 10348 10347 10346 10343 10340 10337 10336 10334 10332 10329 10326 10324 10322 10319 10317 10315 10313 10311 10309 10307 10306 10304 10302 10300 10299 10297 10297 10297 10297 10299 10301 10303 10306 10309 10312 10314 10317 10321 10323 10326 10329 10331 10332 10334 10335 10336 10338
10386 10384 10383 10382 10382 10381 10381 10379 10379 10379 10379 10378 10377 10377 10376 10375 10373 10371 10370 10369 10367 10366 10365 10363 10362 10360 10358 10356 10354 10352 10351 10351 10350 10350 10350 10349 10348 10346 10344 10342 10340 10339 10337 10334 10331 10329 10327 10325 10322 10320 10317 10315 10312 10311 10308 10306 10304 10302 10299 10297 10295 10293 10291 10290 10289 10288 10288 10289 10290 10292 10294 10297 10299 10302 10305 10308 10311 10314 10316 10319 10321 10322 10324 10326 10327 10329
10381 10380 10379 10378 10377 10377 10376 10375 10374 10374 10374 10373 10372 10372 10371 10370 10369 10367 10365 10364 10362 10361 10359 10358 10356 10354 10352 10350 10348 10346 10344 10344 10343 10343 10343 10343 10342 10340 10338 10336 10333 10331 10329 10327 10325 10322 10321 10318 10316 10313 10311 10308 10306 10303 10301 10298 10296 10293 10291 10288 10286 10284 10282 10281 10280 10280 10281 10281 10282 10284 10287 10289 10291 10294 10296 10298 10301 10303 10306 10308 10310 10312 10314 10316 10317 10319
10377 10376 10374 10374 10372 10372 10371 10371 10370 10369 10369 10368 10367 10366 10366 10364 10363 10361 10360 10358 10357 10356 10354 10353 10351 10348 10346 10344 10342 10339 10337 10337 10336 10336 10336 10336 10335 10334 10331 10329 10326 10324 10322 10321 10319 10317 10314 10311 10309 10307 10304 10301 10299 10296 10293 10290 10287 10285 10282 10279 10277 10276 10274 10273 10272 10272 10273 10274 10276 10277 10279 10281 10283 10285 10287 10289 10291 10292 10295 10297 10299 10301 10303 10305 10307 10309
10372 10371 10370 10369 10368 10367 10367 10366 10365 10364 10363 10362 10361 10361 10360 10358 10357 10355 10354 10352 10351 10351 10349 10347 10346 10343 10341 10339 10336 10333 10331 10329 10329 10328 10329 10328 10327 10326 10324 10321 10319 10317 10316 10314 10313 10311 10307 10305 10302 10300 10297 10294 10291 10289 10286 10282 10279 10276 10273 10271 10269 10267 10266 10266 10266 10266 10267 10267 10269 10271 10272 10274 10275 10276 10277 10279 10281 10282 10284 10286 10288 10290 10292 10294 10297 10299
10367 10366 10365 10364 10364 10362 10362 10361 10359 10359 10357 10357 10356 10355 10354 10353 10351 10349 10348 10347 10346 10345 10344 10342 10339 10337 10336 10334 10331 10327 10324 10322 10321 10321 10321 10321 10320 10318 10316 10314 10312 10310 10308 10307 10307 10305 10302 10299 10296 10293 10291 10287 10284 10281 10277 10273 10270 10267 10265 10262 10261 10260 10259 10259 10259 10259 10260 10261 10261 10262 10264 10265 10266 10267 10268 10269 10270 10272 10273 10275 10277 10279 10282 10284 10287 10289
10362 10361 10361 10359 10359 10357 10356 10355 10354 10352 10352 10351 10350 10349 10349 10347 10346 10344 10342 10341 10341 10339 10337 10336 10334 10332 10331 10328 10325 10322 10318 10314 10312 10312 10314 10314 10312 10310 10308 10306 10304 10302 10301 10300 10300 10299 10297 10292 10288 10285 10282 10279 10276 10272 10268 10264 10262 10259 10257 10256 10254 10254 10253 10252 10252 10252 10252 10252 10253 10254 10255 10256 10257 10258 10259 10259 10261 10262 10264 10265 10267 10269 10272 10274 10277 10280
10357 10356 10355 10354 10354 10352 10351 10350 10348 10347 10346 10344 10344 10343 10342 10342 10340 10338 10336 10336 10335 10333 10331 10330 10329 10327 10324 10322 10319 10316 10312 10307 10304 10304 10306 10306 10304 10302 10301 10298 10296 10294 10293 10292 10292 10293 10292 10288 10282 10277 10273 10271 10267 10264 10259 10256 10254 10252 10250 10249 10248 10247 10246 10246 10244 10244 10244 10244 10244 10245 10246 10247 10247 10249 10249 10251 10251 10252 10254 10256 10257 10259 10262 10265 10267 10270
10352 10351 10350 10349 10348 10347 10346 10344 10342 10341 10340 10339 10337 10336 10336 10336 10334 10332 10331 10330 10329 10327 10325 10324 10322 10321 10318 10316 10313 10309 10304 10300 10297 10297 10298 10297 10296 10294 10292 10290 10288 10287 10286 10285 10284 10284 10285 10283 10277 10270 10264 10261 10258 10255 10251 10249 10247 10245 10244 10244 10242 10241 10239 10237 10236 10236 10235 10235 10235 10236 10237 10237 10239 10239 10241 10241 10242 10244 10246 10247 10249 10251 10253 10256 10258 10261
10346 10346 10344 10343 10342 10341 10340 10338 10337 10335 10334 10332 10331 10330 10329 10329 10327 10326 10325 10324 10322 10321 10319 10317 10315 10314 10311 10309 10306 10301 10296 10292 10290 10289 10290 10289 10287 10286 10285 10282 10280 10278 10278 10277 10276 10275 10274 10274 10272 10266 10257 10252 10248 10246 10243 10241 10240 10239 10238 10237 10236 10234 10231 10229 10227 10227 10226 10226 10226 10227 10227 10228 10229 10231 10231 10232 10234 10235 10237 10238 10240 10242 10244 10247 10249 10251
10341 10339 10339 10337 10336 10335 10334 10332 10331 10329 10327 10326 10325 10324 10322 10322 10321 10319 10318 10317 10316 10314 10312 10310 10308 10306 10304 10302 10298 10294 10289 10284 10282 10281 10282 10281 10279 10278 10277 10275 10272 10270 10270 10270 10269 10267 10264 10264 10262 10259 10253 10246 10241 10237 10236 10234 10234 10232 10231 10229 10227 10225 10223 10221 10219 10218 10217 10217 10217 10217 10219 10219 10221 10222 10222 10224 10225 10227 10228 10229 10231 10233 10236 10237 10240 10242
10335 10334 10332 10332 10330 10329 10327 10326 10324 10322 10321 10320 10318 10317 10316 10315 10314 10312 10311 10310 10309 10307 10306 10303 10301 10299 10296 10294 10290 10286 10282 10277 10274 10274 10274 10273 10271 10270 10269 10267 10265 10262 10261 10261 10260 10259 10257 10254 10251 10249 10246 10242 10237 10232 10229 10228 10227 10226 10224 10221 10219 10217 10214 10212 10211 10209 10209 10209 10209 10209 10209 10210 10211 10212 10214 10215 10217 10218 10219 10221 10223 10225 10227 10229 10231 10232
10330 10329 10327 10326 10324 10323 10321 10320 10319 10317 10315 10314 10312 10311 10309 10308 10307 10306 10304 10302 10301 10300 10299 10296 10294 10291 10288 10285 10282 10278 10274 10270 10267 10266 10266 10265 10264 10262 10261 10260 10258 10256 10254 10252 10251 10249 10247 10245 10242 10240 10237 10236 10233 10229 10224 10222 10220 10219 10216 10213 10211 10208 10207 10204 10202 10201 10201 10200 10199 10199 10200 10201 10202 10204 10205 10206 10207 10209 10211 10212 10214 10216 10218 10219 10221 10223
10325 10324 10322 10321 10319 10317 10316 10314 10312 10311 10309 10308 10307 10305 10304 10302 10301 10299 10297 10296 10294 10293 10291 10289 10287 10284 10281 10277 10274 10270 10266 10262 10260 10258 10257 10256 10255 10254 10253 10252 10251 10248 10246 10244 10242 10241 10237 10235 10234 10232 10229 10227 10227 10224 10221 10216 10213 10211 10209 10206 10203 10201 10199 10196 10194 10193 10192 10191 10191 10191 10191 10192 10192 10194 10196 10197 10199 10200 10202 10203 10205 10207 10209 10211 10212 10214
10321 10319 10317 10316 10314 10312 10311 10309 10307 10306 10304 10302 10301 10299 10298 10296 10294 10292 10291 10289 10287 10286 10284 10282 10279 10277 10274 10271 10267 10263 10259 10256 10253 10251 10249 10247 10247 10246 10245 10244 10243 10241 10238 10235 10234 10232 10229 10227 10225 10224 10222 10220 10218 10217 10215 10211 10207 10204 10201 10199 10196 10193 10191 10189 10187 10186 10184 10183 10182 10182 10182 10182 10184 10185 10186 10187 10189 10191 10192 10194 10196 10197 10199 10201 10202 10204
10316 10314 10312 10311 10310 10308 10306 10304 10302 10301 10299 10297 10296 10294 10292 10291 10289 10287 10285 10283 10281 10279 10276 10274 10271 10268 10265 10262 10259 10256 10252 10249 10246 10244 10241 10239 10239 10238 10237 10236 10234 10233 10231 10226 10224 10222 10221 10219 10217 10216 10216 10213 10211 10208 10206 10203 10200 10197 10194 10191 10188 10185 10182 10181 10179 10177 10177 10176 10174 10174 10174 10174 10174 10176 10177 10178 10179 10181 10182 10184 10186 10187 10189 10191 10193 10195
10311 10309 10308 10306 10305 10303 10301 10299 10297 10296 10294 10292 10291 10289 10287 10285 10283 10281 10279 10277 10274 10272 10269 10267 10264 10260 10257 10254 10250 10247 10245 10242 10239 10236 10234 10232 10231 10230 10229 10227 10226 10224 10222 10219 10215 10213 10212 10211 10210 10209 10208 10207 10204 10201 10197 10194 10192 10189 10186 10183 10180 10177 10174 10172 10171 10170 10169 10167 10167 10166 10166 10166 10166 10166 10167 10168 10170 10171 10173 10175 10176 10178 10180 10182 10184 10186
10307 10305 10303 10302 10301 10299 10297 10295 10293 10291 10289 10287 10286 10284 10282 10280 10278 10276 10274 10271 10269 10266 10263 10261 10257 10254 10249 10246 10242 10239 10237 10234 10232 10229 10226 10224 10222 10222 10221 10219 10217 10215 10213 10211 10207 10205 10204 10203 10202 10202 10201 10199 10196 10194 10190 10186 10183 10181 10178 10176 10172 10169 10166 10164 10162 10162 10161 10160 10159 10158 10157 10157 10157 10157 10158 10159 10161 10162 10164 10165 10167 10169 10171 10172 10174 10176
10302 10301 10299 10297 10296 10294 10292 10291 10289 10287 10285 10282 10281 10279 10277 10276 10273 10271 10268 10266 10263 10261 10257 10255 10251 10247 10244 10240 10236 10232 10229 10227 10224 10222 10219 10217 10215 10214 10213 10212 10209 10207 10204 10202 10200 10198 10196 10195 10195 10194 10193 10191 10189 10186 10182 10177 10174 10172 10170 10167 10164 10161 10158 10156 10154 10153 10153 10152 10151 10150 10149 10149 10149 10149 10149 10151 10152 10153 10154 10156 10158 10160 10162 10164 10166 10167
10297 10296 10294 10292 10291 10289 10287 10286 10284 10282 10280 10278 10276 10274 10272 10271 10268 10266 10262 10260 10257 10255 10252 10249 10246 10242 10238 10234 10230 10227 10223 10220 10217 10214 10212 10210 10209 10207 10206 10204 10202 10199 10197 10194 10192 10191 10189 10187 10186 10186 10186 10183 10181 10178 10175 10170 10166 10164 10161 10159 10156 10154 10151 10147 10146 10145 10145 10145 10144 10142 10141 10141 10141 10141 10141 10142 10143 10144 10146 10147 10149 10151 10153 10156 10157 10159
10293 10291 10289 10288 10286 10284 10282 10281 10279 10277 10276 10273 10271 10269 10267 10265 10263 10261 10257 10254 10251 10249 10246 10243 10240 10236 10232 10228 10224 10221 10218 10214 10211 10208 10206 10204 10202 10201 10199 10197 10194 10192 10189 10187 10186 10184 10182 10181 10179 10177 10176 10176 10174 10171 10167 10162 10159 10155 10152 10150 10148 10146 10144 10141 10139 10137 10137 10137 10136 10135 10134 10134 10134 10134 10134 10134 10134 10136 10137 10139 10141 10142 10145 10147 10149 10151
10288 10286 10285 10283 10281 10280 10278 10276 10274 10272 10270 10268 10266 10264 10262 10260 10258 10256 10252 10250 10246 10243 10241 10237 10235 10231 10227 10223 10219 10216 10212 10209 10205 10202 10199 10197 10196 10194 10192 10189 10187 10184 10182 10180 10178 10176 10176 10174 10172 10169 10167 10167 10166 10163 10159 10155 10151 10146 10144 10141 10140 10139 10137 10134 10132 10131 10129 10129 10128 10127 10127 10127 10127 10127 10127 10127 10127 10127 10129 10131 10132 10135 10137 10139 10141 10143
10283 10282 10280 10279 10277 10275 10273 10271 10269 10267 10265 10262 10260 10258 10256 10254 10252 10251 10247 10244 10241 10238 10236 10232 10229 10226 10222 10219 10215 10211 10207 10203 10199 10196 10193 10191 10189 10187 10185 10182 10179 10177 10175 10173 10171 10168 10167 10165 10164 10162 10161 10160 10157 10154 10151 10146 10142 10139 10136 10133 10132 10131 10130 10128 10126 10124 10123 10122 10121 10121 10120 10120 10121 10120 10120 10119 10119 10120 10121 10123 10125 10127 10129 10131 10134 10136
10279 10277 10276 10274 10272 10270 10268 10266 10264 10262 10259 10257 10255 10252 10251 10249 10247 10245 10242 10239 10236 10232 10230 10227 10224 10221 10217 10214 10211 10207 10203 10199 10194 10191 10187 10185 10183 10181 10179 10175 10172 10169 10167 10166 10163 10161 10159 10156 10155 10154 10154 10152 10150 10146 10141 10137 10134 10131 10128 10126 10125 10124 10123 10121 10120 10118 10117 10115 10114 10114 10113 10114 10114 10114 10113 10112 10112 10113 10114 10116 10117 10120 10122 10124 10126 10128
10274 10272 10271 10269 10267 10266 10263 10261 10259 10257 10254 10252 10249 10247 10245 10243 10241 10239 10236 10234 10231 10227 10224 10221 10219 10216 10212 10208 10206 10202 10199 10194 10190 10186 10182 10180 10177 10175 10172 10169 10166 10163 10160 10157 10155 10153 10151 10149 10147 10146 10146 10144 10141 10137 10132 10127 10125 10123 10121 10120 10119 10117 10116 10114 10113 10112 10111 10109 10108 10107 10107 10107 10107 10107 10107 10107 10107 10107 10107 10109 10111 10113 10116 10117 10119 10121
10269 10267 10266 10264 10262 10261 10258 10256 10254 10252 10249 10247 10244 10242 10240 10237 10236 10233 10230 10228 10225 10222 10218 10216 10213 10210 10206 10203 10200 10197 10193 10189 10186 10182 10179 10176 10172 10169 10166 10162 10159 10157 10154 10151 10147 10144 10142 10141 10140 10139 10139 10137 10133 10128 10123 10119 10117 10116 10114 10114 10112 10111 10109 10107 10106 10105 10104 10103 10102 10101 10101 10101 10101 10101 10101 10101 10101 10101 10102 10103 10105 10107 10109 10111 10113 10114
10264 10263 10261 10259 10257 10256 10253 10251 10249 10247 10244 10242 10239 10236 10234 10232 10230 10227 10224 10222 10219 10216 10213 10210 10207 10204 10201 10197 10194 10191 10188 10184 10181 10177 10174 10172 10169 10165 10161 10157 10154 10151 10148 10144 10140 10137 10134 10132 10132 10131 10131 10129 10126 10121 10115 10111 10109 10108 10107 10107 10106 10104 10102 10101 10099 10099 10098 10097 10096 10096 10095 10095 10095 10094 10095 10095 10095 10095 10096 10097 10099 10101 10102 10104 10106 10107
10260 10258 10256 10254 10252 10251 10248 10246 10244 10242 10239 10237 10234 10231 10229 10226 10224 10222 10219 10216 10213 10211 10207 10204 10201 10198 10195 10192 10189 10186 10182 10178 10175 10172 10170 10167 10164 10161 10157 10154 10150 10146 10142 10138 10134 10131 10128 10126 10124 10124 10123 10122 10119 10114 10109 10106 10103 10102 10101 10101 10099 10098 10096 10094 10094 10092 10092 10091 10091 10090 10089 10089 10089 10089 10089 10089 10089 10089 10090 10091 10093 10094 10096 10098 10099 10101
10255 10254 10252 10250 10248 10246 10244 10241 10239 10237 10234 10232 10229 10226 10223 10221 10218 10216 10214 10211 10207 10205 10202 10199 10196 10193 10189 10186 10183 10180 10176 10172 10169 10167 10165 10162 10160 10156 10152 10149 10146 10142 10137 10132 10129 10125 10122 10119 10117 10116 10116 10116 10112 10108 10103 10100 10097 10096 10095 10094 10093 10092 10090 10089 10087 10087 10086 10086 10085 10084 10084 10083 10083 10083 10083 10083 10083 10084 10084 10086 10087 10088 10090 10091 10093 10094
10250 10249 10247 10245 10243 10241 10239 10236 10234 10232 10229 10227 10224 10222 10219 10216 10213 10210 10207 10205 10202 10199 10196 10194 10191 10188 10184 10181 10177 10174 10171 10167 10164 10162 10160 10157 10155 10152 10148 10145 10142 10137 10133 10128 10124 10121 10117 10113 10109 10107 10107 10107 10107 10103 10099 10096 10092 10091 10089 10088 10087 10086 10084 10083 10082 10081 10081 10080 10079 10079 10078 10077 10077 10077 10077 10077 10077 10078 10079 10079 10081 10082 10084 10085 10086 10087